Theta_e
313 316 322 328 327 326 326 325 325 324 322 323 326 327 324 322 323 324 323 320 319 319 319 318 318 319 320 321 322 323 323 324 325 325 326 326 324 320 319 317 317 319 316 319 322 318 316 317 316 317 319 319 316 314 315 318 318 318 324 327 324 329 328 325 327 319 320 325 316 315 318 318 318 317 318 319 320 320 319 320 322 322 323 324 324 323 318 321
316 314 317 324 328 327 326 326 325 324 322 323 325 327 326 322 321 322 322 321 321 319 319 318 319 319 320 322 322 323 324 325 325 325 326 326 325 320 318 316 314 315 315 315 318 317 317 317 316 316 317 316 315 314 316 318 317 319 326 325 324 332 326 319 320 315 317 320 316 316 317 319 318 317 318 319 320 321 324 327 327 324 323 324 325 324 319 321
317 315 314 318 325 327 326 326 325 324 323 323 324 327 326 322 320 320 321 322 321 320 320 320 320 321 321 323 323 324 325 325 326 326 326 326 326 322 320 318 315 314 315 314 316 317 317 316 316 315 315 314 315 315 317 319 318 318 321 322 325 326 319 316 315 314 316 317 315 315 317 318 318 318 318 318 318 319 324 329 329 326 323 324 325 323 320 322
318 317 315 314 319 325 326 326 326 325 324 323 324 326 326 323 320 319 320 321 321 321 321 321 322 322 323 324 324 324 324 325 325 326 326 326 326 324 321 318 314 314 314 315 316 317 315 315 316 315 315 314 313 315 317 318 318 317 318 323 323 317 317 318 315 315 315 315 315 315 317 317 317 318 316 317 318 318 319 323 325 323 321 322 324 322 321 323
317 318 317 315 314 321 326 326 326 325 324 324 323 325 326 324 320 319 318 319 320 321 321 321 322 323 323 323 324 324 324 326 326 326 326 326 327 325 322 317 314 315 315 316 317 316 315 314 314 315 315 314 313 316 318 318 318 317 317 320 319 315 317 318 315 316 315 315 315 314 316 318 317 316 315 317 319 319 318 319 319 319 319 319 321 322 323 324
316 317 318 318 314 315 323 326 325 326 325 324 324 324 326 325 322 320 318 318 319 321 322 321 321 322 323 322 323 323 324 327 325 324 327 326 326 327 325 321 317 315 315 316 318 319 319 315 314 314 314 314 314 316 317 317 317 317 317 316 317 316 316 316 315 315 315 315 315 315 316 317 316 316 315 316 318 318 318 319 319 318 318 317 319 322 323 323
315 316 317 319 316 312 317 324 325 325 325 324 324 324 325 326 324 320 319 318 318 320 322 322 321 321 321 322 323 323 324 325 322 322 326 326 326 327 326 325 322 319 317 315 316 317 317 316 316 314 314 314 314 315 315 316 316 316 317 316 316 317 315 316 316 314 315 315 315 316 316 316 316 317 315 315 317 317 317 318 318 318 318 319 319 320 320 321
314 315 315 317 317 313 313 320 325 325 325 325 324 323 324 325 325 322 319 318 318 320 323 323 322 322 322 322 324 324 324 325 323 321 324 326 326 326 326 326 324 324 322 316 314 315 314 316 316 315 317 316 312 313 313 314 316 316 317 316 315 316 315 316 316 315 315 315 316 315 315 315 316 316 314 315 317 316 316 317 317 318 319 320 320 319 319 320
313 314 314 316 318 317 314 316 323 325 325 325 324 323 324 324 325 323 320 319 319 319 322 323 323 323 323 324 325 325 325 325 325 323 323 324 326 326 326 326 325 325 324 317 313 315 314 314 315 316 318 316 312 312 311 313 316 315 315 315 315 315 315 315 315 315 315 315 315 315 314 315 315 315 315 316 317 316 316 316 316 318 319 320 320 319 319 319
313 313 314 315 316 318 316 313 319 325 325 325 324 323 324 324 324 324 321 320 319 319 321 323 323 324 325 325 325 326 325 325 326 324 323 324 325 326 327 326 325 325 325 319 314 315 316 315 314 315 317 316 313 312 311 312 313 313 314 314 314 314 314 314 314 313 314 315 315 316 315 313 313 314 316 316 315 315 315 316 315 317 318 319 319 319 318 318
313 313 313 314 315 317 318 313 315 323 325 325 324 322 323 324 324 324 323 321 320 319 320 323 324 323 325 325 325 325 324 324 326 325 324 324 325 326 327 326 326 325 325 323 319 317 316 316 314 314 317 317 316 314 311 311 312 312 315 316 313 312 313 313 313 313 313 314 314 315 313 312 313 313 315 315 315 315 316 317 316 316 317 317 318 318 318 317
312 312 312 313 315 316 318 314 313 320 325 325 323 321 322 324 324 325 324 323 320 319 319 321 323 323 324 325 325 325 323 324 325 325 324 324 325 325 325 323 323 323 324 325 324 321 317 316 315 315 317 317 318 318 314 311 312 311 315 318 314 312 314 313 313 313 313 314 314 314 314 314 314 315 315 314 314 315 316 317 317 316 317 317 317 318 318 317
311 312 312 313 314 315 317 315 312 318 324 325 323 322 322 323 324 325 324 323 321 320 319 320 322 323 323 324 324 324 324 323 324 324 324 324 324 322 320 318 318 318 319 321 323 323 320 317 315 315 315 316 318 319 316 312 311 313 315 317 315 313 315 314 312 313 313 313 314 313 316 317 316 314 314 314 314 316 317 317 317 317 317 317 317 317 318 317
309 312 313 312 314 314 316 316 311 315 322 324 324 323 322 322 324 325 324 324 322 320 319 320 321 322 323 323 323 324 324 323 323 323 323 324 323 319 316 316 316 315 316 317 319 322 321 318 315 315 314 315 316 316 318 314 310 314 315 314 315 315 319 317 311 312 314 313 313 313 315 318 316 314 314 314 314 315 317 317 316 317 317 317 317 318 317 317
307 310 312 312 313 314 315 316 311 313 320 324 324 324 322 322 324 324 324 325 323 321 320 321 321 321 322 322 322 322 323 323 322 321 322 324 323 319 316 316 316 315 314 315 316 319 320 317 314 314 313 314 315 319 325 321 314 314 314 316 316 315 322 322 311 311 315 314 312 313 315 317 315 314 313 314 314 315 316 317 317 317 317 317 317 317 318 317
306 308 311 312 313 313 314 316 313 312 319 323 324 324 322 322 324 324 325 325 324 322 320 321 321 321 322 322 322 322 322 323 322 320 321 323 323 319 316 316 316 315 314 314 315 316 318 316 314 314 313 315 319 324 328 323 318 316 315 318 319 315 319 320 312 310 313 313 312 312 315 319 316 312 313 314 314 314 315 316 318 318 318 318 318 318 318 317
307 307 309 312 312 312 313 316 315 312 316 322 324 323 322 322 324 324 325 325 324 323 321 321 321 321 322 321 321 322 322 323 323 321 319 321 323 319 317 318 317 315 313 313 315 316 316 315 314 314 314 317 320 323 324 319 316 315 313 316 318 316 315 316 316 312 310 313 314 313 314 318 316 312 312 313 313 314 313 314 317 318 318 318 318 319 318 318
308 307 307 310 312 312 312 315 316 311 313 322 324 322 322 322 324 325 325 325 324 322 322 321 321 323 323 320 320 322 322 323 323 321 319 320 322 319 317 318 316 313 312 314 316 316 315 314 314 316 317 318 317 319 322 320 315 314 314 315 315 314 314 315 317 313 311 313 314 314 314 315 316 312 311 312 312 313 313 313 314 316 317 318 318 318 318 317
308 308 307 308 311 313 313 314 315 311 314 323 323 322 323 323 324 325 324 324 321 320 322 321 321 324 323 320 320 322 322 323 323 320 319 320 321 318 317 317 315 312 313 315 315 315 314 313 315 316 316 317 316 316 319 318 314 313 313 314 314 315 314 315 318 315 312 313 314 315 314 314 315 314 312 312 312 312 312 312 313 313 314 316 317 316 316 315
308 308 307 307 310 313 313 314 314 312 316 322 323 324 323 321 321 320 320 321 321 320 321 321 321 322 320 320 320 321 322 323 322 319 319 320 318 316 316 315 312 312 313 314 315 315 314 314 315 316 316 316 315 313 314 314 312 311 311 311 312 315 314 315 318 316 311 313 314 314 314 314 314 315 312 311 312 311 311 312 312 312 313 314 315 315 315 314
307 308 308 307 309 312 312 314 314 314 320 322 322 325 322 319 320 318 318 320 321 320 320 321 322 320 319 320 321 321 322 322 321 318 318 318 317 314 313 312 311 311 312 313 313 313 314 315 315 315 315 314 313 312 312 312 312 311 310 310 311 313 315 315 316 315 311 313 315 314 313 313 313 314 311 309 311 312 311 311 311 312 312 313 314 314 315 314
307 307 308 306 308 311 312 314 314 313 321 324 322 324 321 320 322 320 320 320 319 318 318 321 321 318 318 320 321 321 322 322 320 319 320 318 315 313 312 311 311 311 311 311 312 312 313 315 314 313 313 313 312 312 311 312 313 313 312 310 312 314 316 315 315 314 312 313 317 316 313 313 313 313 310 308 310 313 313 313 313 313 313 313 314 314 314 314
306 307 308 307 307 311 311 314 315 312 316 321 322 323 320 319 320 320 321 320 317 316 317 321 320 317 318 320 321 321 322 322 320 320 320 317 313 313 312 311 311 311 311 311 311 312 312 312 312 312 312 312 312 312 312 313 314 316 314 311 312 315 316 316 314 314 313 313 316 317 316 315 314 314 313 310 310 312 313 314 314 314 314 314 314 314 314 315
306 306 308 307 307 310 312 314 316 313 313 314 318 322 320 318 318 320 320 318 317 316 317 321 320 317 318 320 321 322 322 322 320 320 319 315 312 313 312 311 312 313 311 310 311 312 312 311 311 312 311 312 312 312 312 314 315 316 314 312 312 315 316 316 315 314 313 313 314 316 317 318 317 316 315 313 311 311 312 312 312 313 314 314 314 314 314 315
306 305 307 307 306 309 311 314 316 315 312 312 316 320 320 317 317 320 320 318 318 316 316 319 319 317 318 319 321 321 322 321 321 320 317 315 313 312 312 311 312 312 311 311 312 311 311 310 311 311 311 312 312 312 313 314 315 315 314 313 312 313 316 317 316 315 313 314 316 314 314 322 324 318 315 315 313 312 311 310 311 313 314 314 314 314 314 315
305 305 307 308 307 308 311 315 317 315 313 313 316 318 319 317 317 320 320 319 320 316 314 318 319 318 317 320 321 321 322 321 320 320 317 315 314 312 312 312 312 312 312 311 311 312 312 310 311 312 312 313 313 313 314 314 315 315 316 315 313 315 320 321 317 317 317 316 316 314 314 322 324 319 317 315 313 314 312 310 310 312 314 314 314 315 315 315
305 304 307 308 306 308 312 316 317 315 315 315 315 317 318 317 318 320 320 321 320 316 314 317 319 318 317 319 320 320 322 321 319 318 316 314 314 312 312 312 312 313 312 311 312 313 312 310 311 312 312 313 313 312 313 314 314 315 317 317 317 317 322 324 318 319 322 317 317 318 316 316 317 318 319 314 313 315 313 311 310 310 313 315 315 316 316 315
305 304 307 308 307 308 311 315 317 316 315 313 314 317 317 317 319 320 320 322 320 315 314 316 317 317 317 319 320 319 320 320 319 318 315 314 314 312 312 312 312 313 312 312 313 313 312 311 312 312 312 312 312 312 314 314 314 316 319 320 319 318 322 324 318 319 319 315 319 321 315 314 320 325 323 315 314 316 315 315 313 309 312 314 315 316 316 315
306 307 308 307 308 308 310 315 317 316 314 313 314 316 317 317 318 318 319 321 317 313 315 317 315 315 317 318 318 317 317 319 320 317 313 313 314 312 312 312 311 312 312 312 314 314 312 311 311 311 312 312 312 312 314 315 313 316 321 321 321 323 323 320 320 321 316 314 322 323 315 313 321 330 326 316 315 319 319 318 314 309 311 313 315 316 316 316
310 310 309 308 309 309 311 316 318 316 314 314 315 315 316 317 317 318 320 320 316 314 315 314 313 315 317 317 316 316 317 317 317 315 313 313 313 312 312 312 311 313 314 312 315 316 311 309 310 311 312 312 312 312 313 314 313 314 320 320 320 324 324 323 328 326 316 317 326 326 319 313 315 325 325 317 318 321 320 319 317 312 311 312 314 315 315 316
313 312 310 309 310 310 314 317 318 316 315 316 316 316 317 317 317 319 319 317 316 315 314 313 313 315 317 317 317 316 316 316 314 314 313 312 313 312 311 312 312 315 317 314 315 316 312 311 312 311 311 312 313 313 312 313 313 315 322 321 318 322 324 326 329 323 316 322 327 323 317 314 314 322 324 320 319 319 317 318 320 316 312 313 315 315 314 315
314 313 310 309 309 311 315 318 317 316 316 317 316 316 317 317 317 319 318 316 316 315 313 313 313 315 316 317 316 315 315 316 314 314 314 313 314 312 311 313 313 315 315 313 315 315 313 316 314 311 311 312 314 315 314 315 315 317 321 319 317 320 320 320 322 319 318 321 319 315 314 315 316 318 320 319 317 318 314 312 314 313 312 314 315 315 315 315
314 312 311 309 310 313 317 317 317 317 316 316 316 316 318 319 318 318 315 314 315 314 313 313 313 314 315 315 314 313 314 315 315 315 314 314 315 313 312 314 313 316 316 315 315 314 316 318 315 313 312 312 314 314 314 317 316 315 317 317 317 319 316 317 319 317 317 319 315 312 313 317 317 317 318 317 315 315 311 308 311 312 312 314 314 315 316 315
313 312 311 310 311 315 317 317 316 316 316 316 316 317 319 319 317 315 314 313 313 313 313 313 313 314 315 315 313 312 313 314 315 316 315 314 315 313 312 313 313 317 318 316 315 314 316 317 314 315 313 312 315 315 315 318 317 315 317 318 320 322 319 318 319 319 318 319 316 311 314 320 320 318 319 314 310 312 311 310 313 312 313 314 314 315 316 316
313 312 312 312 314 315 316 316 316 316 315 315 316 317 319 320 316 313 313 312 311 313 314 314 313 314 315 314 313 312 313 314 314 316 315 314 314 313 313 312 312 315 316 315 315 314 315 316 315 314 311 312 315 315 314 316 316 317 319 318 318 321 323 319 319 324 323 320 317 313 317 323 320 316 315 309 309 311 310 310 311 311 313 313 313 315 315 315
313 313 314 315 316 316 315 315 315 315 316 315 316 317 318 318 314 313 313 311 311 313 313 314 314 314 315 314 313 313 312 313 313 314 314 313 314 314 313 312 312 313 314 315 316 316 315 316 315 314 312 311 313 313 314 315 316 316 315 317 317 318 322 320 315 316 317 317 318 315 317 321 317 315 317 315 314 314 311 310 310 311 313 312 313 315 314 315
315 315 315 316 316 315 315 315 315 315 316 316 316 317 317 316 314 313 312 311 312 312 313 315 314 314 314 313 313 314 313 313 312 313 313 312 313 313 313 313 312 312 314 314 315 317 317 316 314 315 316 312 309 310 312 312 314 317 315 316 317 315 319 322 317 314 313 316 320 316 316 319 316 318 324 319 315 317 316 313 310 310 312 312 313 315 314 315
316 316 316 316 315 315 315 315 315 315 316 316 316 317 317 316 313 313 311 310 312 312 313 315 314 314 314 313 313 313 314 314 312 312 313 312 313 313 312 313 311 311 313 313 314 317 319 318 314 313 315 313 309 312 314 311 310 314 314 314 316 316 317 319 318 317 314 314 320 319 315 318 318 320 325 318 315 319 318 316 315 312 310 311 313 314 314 314
317 316 315 315 315 315 315 315 315 314 315 316 316 316 316 314 312 311 310 310 311 312 314 315 314 315 314 314 313 312 313 314 312 312 312 312 313 312 311 313 313 311 310 311 316 317 318 321 317 312 313 313 313 313 315 315 311 311 312 312 315 317 317 317 318 319 317 316 320 318 315 320 321 319 322 318 317 320 317 319 322 315 309 311 314 314 314 314
317 315 314 315 315 315 314 314 314 314 315 316 316 316 315 312 311 310 310 311 312 312 313 314 314 315 314 314 313 312 313 314 312 312 313 312 312 311 311 312 313 312 310 312 318 317 314 319 319 314 311 313 315 316 317 316 313 313 314 313 313 314 317 319 318 319 321 320 321 317 315 323 324 317 318 317 316 316 315 317 319 313 311 313 314 314 314 314
315 314 313 315 314 313 313 313 313 314 315 317 316 315 314 311 310 310 310 311 312 312 312 313 313 314 314 314 313 312 313 314 312 312 313 312 311 312 311 310 311 312 311 313 317 317 315 317 319 316 314 314 317 317 316 316 315 315 315 314 314 314 316 317 316 317 319 319 322 319 314 321 324 316 313 315 316 316 313 313 312 312 313 314 314 314 314 313
314 313 313 314 314 312 312 312 313 314 315 316 315 313 313 311 310 311 311 311 312 312 312 312 313 313 313 313 313 313 313 313 312 312 313 312 311 314 312 309 310 311 312 315 316 316 317 319 319 317 316 317 317 313 309 312 316 315 314 314 314 314 316 315 315 318 316 315 320 319 314 316 321 319 314 312 314 312 309 309 309 311 313 314 314 313 312 312
312 312 313 314 314 313 312 312 312 313 314 314 312 312 312 311 310 311 311 312 312 313 312 312 312 312 312 312 313 313 313 313 312 312 313 313 312 313 311 309 311 312 313 316 316 315 317 319 320 317 315 317 320 315 309 309 313 314 314 315 314 315 320 322 321 320 316 315 316 314 313 313 317 322 315 308 308 309 308 308 309 312 314 313 312 312 311 311
311 312 312 313 313 313 313 313 312 312 313 313 311 312 312 310 310 311 312 312 313 313 312 312 312 312 312 312 313 313 313 313 313 313 314 314 311 310 309 309 312 313 313 315 314 314 316 318 318 318 316 317 319 318 313 311 313 315 316 315 314 315 318 318 317 316 315 319 318 314 315 315 316 320 314 308 311 310 308 309 310 311 313 312 312 312 311 311
311 312 312 312 313 313 313 313 312 312 312 312 312 314 313 311 310 310 311 312 313 312 312 311 312 311 312 313 313 313 313 314 314 313 314 315 311 309 309 309 312 312 312 313 311 313 319 319 317 318 318 316 316 316 315 315 314 316 318 317 315 315 315 315 317 315 313 319 318 314 315 315 314 314 313 313 315 313 310 310 310 311 311 312 311 310 311 311
311 312 312 312 312 312 312 311 312 312 312 312 312 313 313 312 310 310 311 312 312 312 312 312 312 312 312 313 313 313 313 314 314 313 313 314 314 311 309 309 311 311 312 313 311 314 322 319 315 316 316 314 316 318 318 317 315 314 317 318 316 315 315 319 322 318 315 318 317 313 315 314 312 312 313 315 316 316 314 310 309 311 311 310 311 311 311 311
311 311 311 311 312 312 311 311 313 313 312 312 312 312 312 312 312 310 311 312 312 311 313 313 312 312 312 312 313 313 312 314 314 313 313 314 316 313 310 309 311 311 312 312 311 316 323 318 314 316 314 315 322 323 319 316 315 315 315 316 316 316 315 317 318 315 317 318 314 314 316 316 314 314 315 316 318 321 318 310 309 311 312 312 312 312 311 311
310 310 310 310 312 312 311 312 313 312 311 311 312 312 313 312 312 311 311 312 312 311 313 312 312 313 312 312 313 313 312 314 314 313 314 315 315 313 311 310 310 310 312 312 311 316 320 316 314 315 314 315 320 321 317 316 315 314 314 315 315 316 315 315 314 314 316 315 313 316 319 317 316 316 315 316 316 316 314 311 311 313 313 313 313 312 312 311
310 310 309 310 311 311 311 312 312 312 311 311 312 313 313 312 312 312 313 313 312 312 313 313 312 313 313 313 313 312 312 314 313 312 313 315 315 314 313 313 310 308 310 313 313 313 316 316 314 314 314 314 315 316 316 316 315 314 314 314 314 314 315 314 313 313 314 314 313 318 320 316 314 315 316 314 310 309 310 310 311 313 313 313 312 312 312 311
310 310 310 309 310 311 312 311 311 312 310 310 312 313 312 312 312 313 314 313 313 313 313 312 312 313 313 313 312 312 313 313 314 313 313 314 314 314 315 315 313 310 310 312 312 310 312 316 314 314 314 313 314 314 313 314 315 315 315 314 313 314 314 314 313 313 314 313 313 315 316 314 312 312 312 311 308 308 310 310 311 312 312 312 312 312 312 312
308 309 310 310 310 312 313 311 310 311 310 310 312 312 312 312 312 313 313 312 312 313 313 313 313 312 312 313 313 313 312 313 313 313 313 314 314 314 314 313 313 312 312 313 314 313 314 314 312 314 316 314 314 315 314 313 313 314 315 315 314 313 313 313 313 313 313 313 313 314 314 313 312 311 310 309 308 308 309 310 312 312 312 313 313 313 313 312
308 309 309 310 310 311 311 311 310 311 311 310 310 312 313 312 312 313 313 311 311 312 312 313 313 312 312 313 313 312 311 311 312 311 312 313 312 312 312 310 311 313 313 314 316 315 315 315 314 316 317 314 313 315 316 315 314 313 314 314 312 312 313 313 313 314 313 313 313 313 313 314 314 313 312 312 311 310 309 310 312 312 312 313 313 313 313 313
Wind_Speed
35 36 38 40 41 41 41 40 38 37 38 39 38 35 34 33 33 34 35 37 37 38 37 36 35 33 33 32 31 29 27 25 25 25 23 21 20 19 19 16 16 21 18 16 22 17 14 13 6 8 13 11 8 6 7 6 5 5 2 2 3 3 5 5 6 6 3 3 8 16 18 12 8 12 15 11 14 17 14 12 12 14 9 10 13 9 20 29
32 35 37 39 42 42 42 41 39 39 38 39 39 37 35 34 34 34 36 37 37 37 36 35 33 32 31 31 31 28 26 26 24 25 26 22 19 18 19 18 16 19 21 15 17 20 16 15 9 5 9 10 6 6 8 7 8 6 3 2 5 5 5 4 5 6 4 5 11 18 19 16 14 16 18 10 9 15 12 8 11 12 12 13 14 14 22 30
31 34 36 37 40 40 42 43 40 40 38 39 41 39 38 36 35 35 36 37 36 35 34 33 31 31 30 29 30 25 24 25 23 26 29 25 20 21 20 18 18 19 23 20 16 20 18 15 14 8 4 5 5 7 7 6 8 6 4 2 6 6 4 5 5 6 7 8 10 16 18 16 16 19 18 12 10 11 10 12 13 14 16 15 16 20 25 31
32 34 35 36 38 36 39 44 43 41 39 39 41 41 40 38 37 36 36 36 36 34 32 31 29 30 30 29 28 26 24 17 20 30 29 25 21 23 22 19 20 19 21 23 19 19 17 14 14 11 5 3 4 7 7 7 7 4 5 5 6 4 3 7 7 7 8 9 13 16 13 12 16 18 17 15 10 4 12 22 22 22 22 20 22 25 27 31
32 33 33 34 39 37 36 42 45 43 40 39 41 43 42 40 39 37 37 37 36 35 32 30 29 29 30 29 28 27 21 8 13 28 27 25 23 21 24 24 23 19 18 23 22 20 18 15 11 12 10 5 3 4 5 8 8 2 4 8 7 3 3 7 6 6 8 7 12 13 11 13 17 15 17 20 12 10 21 28 26 25 23 21 24 26 27 31
32 32 32 31 36 40 38 40 45 45 41 41 41 43 42 40 40 39 38 37 36 35 33 31 29 28 28 28 26 26 22 6 3 18 26 26 24 21 25 27 25 20 14 17 22 23 21 16 11 8 7 4 2 3 4 6 7 3 3 7 11 10 6 6 4 5 7 7 15 16 14 17 17 11 17 25 20 18 24 26 23 21 20 20 23 26 28 30
32 32 32 31 33 38 41 38 42 48 43 42 43 42 44 42 40 40 40 38 37 36 33 32 31 30 29 26 24 25 26 14 0 8 23 28 25 22 23 27 27 22 15 15 20 21 19 18 14 6 1 2 2 5 6 4 5 4 4 5 10 16 14 11 7 6 7 11 18 18 15 17 19 11 14 25 25 18 15 20 22 19 19 21 24 26 27 28
32 32 31 32 32 34 42 40 39 47 47 43 44 43 45 45 42 41 41 39 38 36 34 32 30 30 28 28 27 23 25 22 8 4 15 25 27 23 22 25 27 25 21 20 23 24 21 21 22 12 2 2 3 5 7 6 3 4 4 7 7 11 14 13 10 8 8 11 14 14 11 16 21 11 10 23 25 17 14 18 21 22 22 24 26 27 26 28
32 32 31 32 34 33 39 43 38 44 49 44 44 45 45 46 44 42 42 40 40 38 36 33 30 30 28 29 29 18 19 26 19 9 9 19 26 24 23 26 29 29 26 26 25 24 22 20 21 17 10 3 4 7 9 6 1 2 4 8 7 8 9 9 11 10 8 10 13 12 8 12 15 7 8 21 23 18 15 18 23 25 26 26 27 27 27 28
33 32 32 31 35 34 36 45 41 40 49 47 45 46 45 46 46 44 43 41 41 38 37 35 32 32 30 30 25 12 18 26 22 17 9 14 24 24 24 26 28 30 29 31 29 26 23 20 20 19 14 8 3 7 7 4 5 12 8 10 12 9 7 6 9 9 7 8 14 13 5 7 10 4 6 16 21 19 17 18 23 27 28 28 28 28 28 28
35 33 32 31 34 35 34 41 43 39 47 50 47 48 47 46 47 45 44 43 42 40 37 36 34 33 32 30 23 12 19 25 22 22 13 11 21 24 25 25 24 28 28 31 30 26 25 22 22 19 10 8 5 6 6 5 12 14 5 9 14 8 5 7 6 8 6 4 13 13 3 3 4 4 8 14 19 21 20 20 24 29 30 29 29 28 28 28
36 35 34 32 33 35 33 36 43 41 44 53 49 48 48 46 48 46 44 43 43 42 40 38 36 35 33 27 24 19 19 22 23 23 15 10 17 20 20 18 17 20 22 27 29 27 26 22 22 19 9 8 6 3 4 7 14 11 3 3 9 7 5 8 6 7 7 2 11 13 3 3 4 10 13 14 20 22 20 22 24 29 32 31 30 30 29 28
37 36 34 34 32 34 33 33 44 43 41 53 51 47 49 47 48 47 44 45 44 44 41 39 37 36 32 20 20 24 17 16 21 21 16 14 17 18 18 15 13 12 11 18 23 26 27 19 20 20 12 10 6 3 4 10 13 8 2 2 4 6 5 9 7 6 6 3 10 12 3 6 9 17 15 13 22 24 21 23 24 28 32 33 33 32 30 29
39 38 36 35 33 34 34 31 43 46 40 50 53 47 49 48 48 47 44 45 44 43 40 38 36 33 29 17 16 26 20 14 18 20 20 21 22 21 20 18 15 14 11 10 14 22 27 19 19 19 13 12 6 3 4 10 8 4 1 1 1 3 5 6 6 8 6 5 9 9 3 7 8 16 17 16 24 27 24 24 25 27 31 33 34 33 32 30
39 40 38 36 35 35 35 32 41 49 40 46 55 48 49 49 47 48 45 44 44 43 41 37 35 30 22 14 16 24 25 20 19 22 23 24 27 25 24 21 18 17 14 10 11 15 24 22 20 16 11 12 8 1 2 6 5 2 1 3 1 4 5 7 5 11 8 4 8 7 3 7 8 11 16 19 24 28 26 25 26 28 29 32 34 34 32 31
39 42 41 38 37 37 36 33 39 50 42 43 55 49 49 49 46 47 44 45 43 41 41 36 35 31 16 10 15 22 28 28 23 23 25 25 28 28 26 22 18 18 14 10 9 12 19 21 18 16 12 10 7 4 3 4 4 2 3 3 2 4 3 5 4 9 8 3 4 4 2 5 6 7 10 18 26 28 26 25 27 29 30 32 32 33 33 31
40 42 43 40 39 39 38 34 37 48 44 44 52 49 49 49 45 46 44 45 42 41 43 37 38 33 13 9 17 24 31 33 27 25 26 27 29 29 27 22 18 18 15 13 12 14 18 19 16 11 8 6 5 6 4 3 5 4 3 4 4 3 4 3 3 6 6 4 5 5 4 6 6 5 4 16 27 28 27 27 28 30 30 31 31 32 32 32
41 42 44 42 40 39 40 36 36 44 43 46 52 48 48 47 45 45 46 47 42 40 36 33 37 25 11 17 23 26 34 34 31 28 27 28 31 32 29 22 19 19 18 16 15 16 15 13 12 5 3 5 5 8 8 8 7 6 4 4 5 4 4 5 3 5 8 4 6 6 6 10 10 7 4 12 22 26 28 27 28 29 30 31 31 32 32 32
44 44 45 45 42 41 41 38 37 42 43 46 50 49 47 46 46 46 49 51 41 29 20 29 38 13 4 24 27 24 33 34 31 29 28 31 33 33 26 19 20 23 20 14 10 14 14 7 8 5 6 9 8 10 7 2 4 3 2 1 5 5 5 5 4 5 9 6 6 8 8 11 13 10 7 11 17 21 22 21 23 27 29 30 31 32 32 33
46 47 48 47 45 44 42 40 40 43 45 48 51 50 43 37 27 24 41 53 48 30 17 38 48 11 5 28 32 27 31 31 29 29 29 34 38 31 21 18 21 20 15 9 6 14 17 7 6 8 9 10 10 10 6 4 4 4 6 4 5 6 5 5 4 5 5 6 7 9 10 12 13 10 8 12 13 14 17 18 22 25 27 30 32 33 34 34
50 49 50 50 49 47 44 43 43 44 46 53 59 49 41 39 20 19 40 45 48 36 18 41 49 13 8 27 35 35 33 28 29 33 29 32 36 24 18 19 16 10 10 13 10 12 14 7 7 7 6 9 10 9 8 9 7 6 6 6 6 5 6 6 3 3 2 4 6 6 8 12 11 9 8 9 8 12 20 21 23 26 27 30 33 35 36 35
54 52 52 52 51 50 47 43 44 47 44 48 60 50 44 49 36 42 47 25 27 27 14 36 36 10 12 22 31 38 33 23 25 36 32 30 32 21 16 17 10 7 10 13 10 6 7 6 8 9 8 11 11 11 11 10 8 6 6 5 6 4 4 5 3 2 1 3 5 3 6 11 11 10 8 8 10 16 25 28 28 29 28 31 34 35 36 36
58 57 54 54 54 52 49 44 44 50 46 41 52 52 47 40 32 48 47 17 14 15 15 37 28 13 21 23 30 38 31 22 21 32 35 32 31 24 20 14 9 9 9 10 10 8 5 6 13 17 13 13 13 13 12 9 7 7 6 5 6 3 2 4 3 2 1 1 2 3 4 7 8 7 7 11 17 20 25 27 29 30 29 31 34 35 36 36
61 61 57 55 57 55 50 46 44 48 51 48 48 51 51 37 30 49 40 12 6 8 17 39 30 21 26 24 32 37 28 25 25 30 34 33 29 22 18 14 10 9 10 11 11 10 6 7 19 21 14 14 13 13 12 8 6 8 8 6 6 5 5 5 2 2 1 2 2 4 2 5 6 6 7 10 16 19 23 22 23 28 31 32 32 32 36 36
64 64 60 57 58 58 52 46 49 50 50 55 50 44 49 38 35 51 32 9 3 5 11 27 23 20 25 25 32 36 29 24 28 35 36 35 31 18 12 15 12 8 12 13 10 8 7 12 22 18 13 14 12 11 11 8 6 6 8 9 10 10 7 4 2 4 3 3 3 2 1 6 5 5 8 8 7 12 17 16 20 27 31 33 33 34 37 37
67 66 62 60 59 59 53 46 54 55 49 56 53 43 48 41 40 50 25 5 4 4 8 21 19 18 25 27 33 34 23 17 26 37 36 33 32 20 11 13 11 8 12 11 6 4 6 13 20 16 14 15 11 9 9 9 6 5 6 8 10 9 5 5 5 4 3 4 3 2 5 5 6 4 9 7 6 10 11 10 18 26 29 32 35 36 38 38
69 69 64 62 62 60 57 50 53 57 52 54 53 45 47 44 44 45 19 2 6 7 10 17 17 21 26 30 36 25 10 16 24 32 38 34 30 21 10 10 9 10 11 9 5 4 5 12 14 14 14 12 10 8 8 11 8 4 6 5 7 7 7 8 7 4 2 3 2 3 4 3 5 6 7 4 5 9 9 8 14 22 28 33 36 38 39 38
72 72 67 65 65 64 61 53 53 59 58 56 56 47 45 47 47 37 12 3 7 7 9 14 14 22 27 32 36 17 11 26 20 21 40 37 28 20 9 9 9 9 11 10 7 3 6 12 14 15 13 9 9 9 9 11 7 7 7 5 6 6 5 6 7 4 0 1 2 3 2 3 5 6 5 1 4 8 10 11 12 20 30 35 37 39 39 38
73 73 71 68 65 65 64 56 56 64 62 60 59 47 44 52 43 21 3 3 5 4 9 16 14 21 28 27 25 14 20 27 13 18 38 32 26 16 4 10 10 8 11 10 7 3 2 12 17 16 12 8 10 10 11 11 7 7 6 4 2 2 3 3 4 4 2 1 5 6 4 3 5 6 4 1 3 6 9 9 10 19 30 35 38 41 40 40
71 74 74 72 66 65 63 56 60 66 62 63 61 50 48 45 26 9 5 4 3 3 11 16 13 21 29 20 13 12 17 15 13 25 28 22 25 14 2 10 10 5 6 5 6 4 3 6 12 10 8 8 11 11 12 12 8 6 7 5 4 4 4 3 2 3 2 3 6 7 4 3 4 6 4 4 5 6 7 7 8 14 23 30 36 39 40 41
69 75 75 74 68 67 60 51 59 66 62 64 63 57 46 25 8 5 7 4 4 5 10 12 12 20 27 19 11 13 13 8 15 26 18 12 19 13 5 9 7 4 4 5 6 2 5 3 5 3 5 7 9 7 6 7 8 7 5 4 3 1 2 3 3 2 2 5 5 5 2 3 4 5 5 6 6 6 7 7 8 10 16 23 28 32 35 37
71 75 75 74 70 68 57 47 60 69 66 68 68 58 33 9 4 5 4 5 5 6 9 12 14 17 23 20 13 13 12 8 14 21 15 11 13 13 11 9 8 7 7 9 6 0 1 1 1 1 3 6 8 6 1 0 5 6 4 6 5 1 1 2 3 1 3 5 4 2 2 3 5 7 8 9 10 10 10 11 13 12 14 16 17 22 26 30
72 74 76 75 70 68 55 46 64 74 71 74 66 43 18 7 7 4 5 5 4 7 11 15 18 19 22 19 12 11 11 9 15 18 15 13 10 11 10 7 9 8 5 7 6 3 3 4 3 2 2 5 9 8 5 2 4 6 5 6 6 3 4 5 4 1 3 4 3 2 2 2 3 6 11 13 15 18 13 11 15 15 14 12 11 13 16 21
74 74 75 73 69 66 53 50 69 76 76 74 50 24 13 10 4 5 8 6 4 9 11 13 18 19 17 14 12 12 9 7 14 16 12 11 8 9 9 10 12 6 4 6 6 7 8 4 4 5 2 6 8 6 8 7 6 6 5 6 5 4 5 5 3 3 4 3 3 2 1 3 4 4 9 12 17 21 16 13 16 18 19 18 15 13 13 14
73 73 72 67 64 61 54 57 70 72 72 59 28 11 14 9 3 6 9 7 6 10 10 12 17 17 12 8 10 11 5 5 13 13 11 12 11 13 12 14 16 9 7 8 5 6 10 5 2 1 1 5 8 4 5 9 7 4 3 5 5 6 5 2 3 5 4 1 2 2 3 4 4 6 9 8 11 16 16 14 15 17 21 22 20 18 16 14
71 69 66 61 58 57 57 62 68 67 62 38 12 9 10 5 5 7 7 10 13 14 14 13 12 14 11 6 8 9 3 6 12 10 10 12 13 15 15 12 13 11 10 9 3 4 8 2 4 2 2 1 5 4 3 6 6 2 3 5 5 5 7 4 2 1 3 2 3 2 3 4 3 7 10 6 6 9 10 10 12 14 15 17 19 19 18 17
67 63 59 57 56 56 60 64 66 67 55 24 7 9 7 5 11 11 10 14 18 18 18 13 8 12 13 7 8 11 7 8 11 8 9 9 9 15 15 11 13 14 12 9 4 2 6 2 3 1 2 2 1 2 1 1 3 5 5 7 3 2 3 3 2 0 1 4 4 1 3 4 2 3 7 6 6 9 8 7 10 12 13 15 19 19 19 19
62 58 53 55 57 58 63 66 67 64 42 15 8 10 6 7 12 13 13 16 18 18 15 11 8 9 13 12 11 15 13 11 11 10 10 8 7 13 18 13 13 16 14 11 6 3 5 3 3 0 3 2 2 2 2 2 1 4 5 5 4 3 3 2 3 3 3 4 4 3 3 3 4 4 4 4 7 8 9 7 6 9 14 18 20 19 18 19
57 46 38 49 61 63 68 70 67 51 25 10 10 8 5 7 10 15 23 22 16 16 13 11 11 9 11 14 14 16 16 14 15 12 10 10 7 12 21 15 9 13 16 11 6 4 4 4 2 2 1 1 2 2 6 2 2 2 1 2 1 3 5 3 3 4 3 4 3 2 3 3 5 7 5 8 9 7 8 7 6 10 15 19 21 19 17 17
50 28 20 47 64 67 74 70 55 32 12 10 11 7 8 10 10 20 35 32 17 12 13 12 13 12 12 13 12 13 12 11 15 12 7 10 5 6 18 17 9 13 14 9 6 5 3 3 3 1 1 2 2 3 7 7 4 2 4 5 4 1 2 2 2 3 3 4 3 2 4 5 6 6 8 11 10 8 9 7 7 12 15 15 17 17 15 15
46 15 13 52 66 68 71 49 26 14 7 11 12 9 12 10 11 21 34 35 20 9 11 14 15 14 14 14 11 11 10 7 13 10 3 8 7 3 13 18 13 13 11 6 6 5 3 3 5 3 1 4 4 3 5 6 7 6 6 8 8 4 4 4 5 2 2 3 5 3 6 8 6 5 9 11 9 10 10 7 8 14 14 10 10 11 10 10
35 8 19 58 69 69 57 21 6 9 7 10 11 12 13 9 11 19 24 28 18 6 8 12 13 12 11 13 12 13 12 7 12 12 3 7 9 3 11 20 20 18 12 5 4 4 3 5 5 2 4 5 5 2 4 3 2 2 4 5 5 4 5 6 7 3 2 3 3 3 6 8 6 7 10 11 11 12 11 8 10 13 10 7 6 6 6 7
20 12 34 65 74 70 43 8 6 11 5 8 12 13 13 9 12 18 19 21 14 6 8 9 10 12 9 9 10 12 11 7 10 10 3 4 6 5 15 26 25 18 9 4 4 5 4 5 4 1 2 3 5 3 2 2 1 2 4 2 3 4 4 5 5 4 4 4 4 2 7 5 5 8 10 11 13 14 12 11 14 13 9 7 6 5 5 6
19 23 39 61 75 69 34 6 12 11 5 11 11 9 8 6 12 18 17 18 12 9 11 9 11 14 10 10 13 15 15 9 7 8 3 4 5 8 23 34 28 17 10 8 10 9 4 3 4 4 2 2 3 3 3 3 2 3 3 1 4 4 5 3 2 3 3 6 7 6 8 5 2 2 5 7 7 8 9 10 12 11 9 7 6 5 6 5
19 21 31 48 64 59 25 6 13 12 11 17 14 11 9 7 13 22 21 15 10 11 12 9 13 13 11 13 14 15 16 9 6 7 3 4 5 6 21 35 30 20 16 15 17 14 6 3 5 6 6 7 7 6 6 5 3 2 2 4 6 6 6 4 3 3 7 6 7 10 10 3 3 2 3 4 2 4 8 9 12 12 10 9 7 6 6 4
12 8 15 25 38 38 15 6 14 11 11 18 13 10 12 9 10 21 24 13 6 11 10 7 12 11 10 15 12 12 16 7 4 8 7 8 6 2 16 32 31 24 20 22 27 18 4 2 8 10 11 12 9 6 5 10 8 8 7 8 7 8 8 5 4 6 6 4 7 13 7 2 1 2 4 6 6 6 7 9 13 14 11 8 7 7 8 6
12 5 10 10 15 17 6 4 11 10 11 16 10 8 15 14 9 14 16 8 9 15 9 5 14 13 12 18 13 11 16 7 3 10 11 9 5 2 10 21 23 23 20 22 27 17 4 4 11 12 12 8 5 6 8 13 14 14 12 11 10 8 8 7 9 11 7 5 10 8 7 6 6 6 8 9 8 7 7 10 13 11 7 7 8 10 10 8
9 11 20 17 12 10 6 9 15 13 15 16 8 6 13 16 15 13 8 4 12 18 11 6 15 18 19 21 14 11 14 8 5 9 9 6 4 5 6 4 6 14 16 16 18 11 4 8 9 8 7 3 3 8 10 12 11 11 14 16 14 12 13 15 20 15 10 10 12 6 11 12 9 8 10 10 10 9 8 10 10 6 6 8 11 12 12 10
8 13 20 17 8 5 9 16 21 19 19 16 8 7 13 17 19 13 5 6 12 14 13 13 16 21 23 21 15 13 14 11 9 9 8 9 10 8 7 3 1 5 8 9 9 4 4 6 4 7 5 2 3 7 10 11 8 8 13 17 15 16 19 22 24 18 14 18 14 5 8 12 9 9 11 11 10 7 4 5 6 6 9 10 11 13 12 12
13 15 16 11 5 5 8 12 17 17 15 14 9 9 14 18 19 12 5 11 15 13 14 20 21 21 22 21 17 17 20 18 15 12 8 9 9 6 6 5 3 4 5 6 4 1 3 4 2 7 4 2 2 5 4 6 7 8 11 13 15 20 23 24 22 14 11 18 15 7 12 12 7 9 12 14 11 3 2 7 10 13 14 12 13 14 15 14
16 17 20 15 5 7 11 10 12 13 11 11 11 10 14 18 20 13 3 5 14 14 13 19 22 18 17 19 18 17 19 18 17 20 21 19 17 12 8 6 7 8 5 4 4 2 3 2 1 6 5 5 2 6 5 5 5 4 9 15 20 21 19 18 14 9 13 18 13 9 14 11 6 8 11 13 10 7 10 15 17 19 18 16 17 18 18 19
18 18 22 18 6 6 13 10 11 13 11 11 10 8 11 15 17 16 7 2 5 12 16 18 17 14 12 16 18 19 21 21 22 27 28 27 25 19 16 18 20 17 10 7 5 4 6 6 2 5 7 5 2 8 8 7 5 4 12 17 21 18 13 10 9 12 18 15 10 12 13 5 5 7 8 7 7 10 15 21 22 23 21 20 21 20 20 20
Wind_Direction
238 231 216 210 215 219 214 211 213 213 211 210 210 210 207 205 206 207 207 208 210 211 212 213 215 217 218 218 216 213 209 208 211 209 204 199 199 198 199 201 196 193 188 194 195 184 184 189 195 219 215 213 213 215 212 208 195 196 162 135 190 191 200 190 180 196 181 202 203 192 185 167 156 172 170 162 163 158 159 170 165 181 189 177 187 183 171 164
237 238 229 212 208 215 217 212 211 213 211 210 210 210 209 205 205 207 206 209 211 213 214 215 217 217 217 218 215 213 212 212 212 213 208 199 191 189 193 189 181 181 172 164 181 178 173 183 182 200 208 195 198 213 211 202 190 187 135 151 210 202 206 193 182 203 217 229 199 188 187 179 172 166 162 159 163 154 146 156 160 172 172 170 185 184 174 166
236 238 239 225 209 208 213 214 210 211 211 209 210 210 210 206 206 207 207 209 210 212 213 214 215 215 214 214 212 209 209 212 218 219 209 200 192 186 187 185 181 184 179 166 158 163 165 175 181 176 184 197 208 217 212 191 192 202 162 175 232 219 230 252 248 238 244 244 199 185 189 186 177 167 166 166 166 168 164 166 164 168 171 170 174 177 176 169
237 240 242 235 223 209 207 212 211 209 209 209 209 211 212 207 206 208 208 209 209 210 210 211 212 211 211 210 207 203 203 211 228 224 210 202 200 191 190 184 178 182 189 187 167 154 154 158 179 191 202 253 243 225 222 195 194 201 169 193 235 208 230 258 260 263 266 242 203 184 177 185 178 171 174 162 149 215 203 186 186 183 177 170 169 175 178 173
237 240 243 239 232 218 205 209 211 209 208 210 210 210 213 210 206 207 209 209 209 210 210 209 209 209 209 209 207 203 200 207 237 226 213 205 204 198 196 190 187 191 198 201 184 166 161 147 155 188 204 242 264 221 228 213 200 201 202 216 237 216 215 251 249 258 270 228 192 176 170 184 177 179 185 170 165 217 207 197 197 194 188 182 176 176 179 178
237 237 241 242 236 227 213 208 211 209 208 210 211 210 211 211 208 207 208 209 209 209 208 207 208 207 206 207 209 205 201 198 241 218 211 205 201 198 199 199 201 195 187 193 188 184 179 159 141 161 190 209 245 250 245 223 201 218 261 226 241 249 243 262 254 249 260 194 177 182 189 180 170 193 197 186 197 210 206 203 200 200 203 199 187 182 183 183
238 236 238 241 238 232 221 213 212 209 207 210 211 209 209 210 209 209 209 209 209 207 205 205 205 207 208 207 206 201 202 209 129 194 203 201 199 199 198 202 203 196 181 164 162 169 175 175 166 135 75 206 231 272 272 262 208 209 271 245 246 245 243 260 260 247 248 205 191 189 187 178 177 194 197 199 211 212 210 207 203 204 203 201 193 189 190 190
239 237 237 238 239 236 226 219 213 208 206 207 209 208 208 210 210 209 209 209 208 206 203 202 204 207 207 201 192 190 201 209 206 178 195 197 199 201 199 199 202 202 199 178 158 151 153 169 175 160 141 277 343 317 326 337 232 193 243 253 251 239 241 251 249 247 241 217 202 190 187 190 188 185 195 209 213 211 213 206 202 201 198 200 199 197 197 196
239 237 236 236 238 240 231 222 216 208 204 204 206 206 208 210 209 208 209 209 207 207 204 202 203 201 198 193 186 186 203 204 206 207 195 198 200 201 198 198 200 201 197 190 182 171 158 157 174 177 173 203 327 327 348 16 241 276 265 266 266 240 241 241 233 232 221 206 193 187 200 198 189 186 222 218 211 206 209 206 202 199 198 201 202 203 202 200
238 238 236 235 235 240 235 225 220 210 203 203 205 205 206 209 209 207 208 209 207 206 204 202 200 196 192 191 187 191 205 202 207 213 208 200 199 196 195 197 202 202 198 193 193 193 184 171 174 177 176 191 261 312 334 39 329 308 297 306 297 257 238 231 230 224 202 192 188 182 193 205 191 195 240 219 208 203 204 204 203 201 202 204 205 207 207 207
237 238 236 235 235 237 238 231 222 213 207 204 204 205 206 208 209 208 207 209 208 205 204 202 199 198 195 193 190 197 205 203 207 212 213 203 197 195 194 198 203 204 202 197 196 197 194 186 174 166 169 192 211 297 312 11 338 315 307 323 304 283 251 224 220 219 199 185 193 179 158 236 201 223 234 209 197 198 198 198 201 203 205 207 208 208 210 211
236 237 237 235 236 236 238 234 222 218 213 205 203 205 204 207 207 207 207 208 208 207 206 203 202 201 198 193 197 204 205 205 211 213 209 196 192 192 188 188 197 203 206 203 200 196 192 189 182 176 174 171 171 268 298 351 338 324 46 4 299 314 297 228 203 207 203 192 186 165 141 277 233 230 229 204 193 192 191 193 198 202 206 207 208 209 210 211
236 236 236 233 236 236 235 232 221 219 215 205 203 201 202 206 206 207 208 207 209 208 206 205 204 202 199 197 203 205 202 201 210 211 199 186 179 174 167 162 168 176 189 202 200 197 194 186 183 182 168 157 163 231 289 344 340 332 52 82 293 317 299 227 194 184 197 206 177 159 190 253 235 231 222 198 195 190 188 193 196 201 205 207 208 209 210 210
235 235 235 232 233 236 234 232 221 219 216 206 203 200 201 204 205 207 208 207 209 208 205 204 203 202 202 204 206 205 203 197 204 204 196 186 174 164 163 164 160 142 132 167 180 190 193 180 178 177 155 156 172 236 309 350 348 350 14 172 245 253 275 252 194 160 170 216 190 162 219 242 244 239 221 205 201 194 192 195 196 200 204 208 209 210 211 210
235 234 234 231 230 234 233 230 220 217 219 208 201 200 199 201 204 206 207 206 207 207 203 200 201 200 200 207 213 210 208 204 200 198 195 187 175 166 166 169 166 153 137 146 150 169 183 175 172 167 134 144 144 100 357 0 339 331 233 239 222 204 269 300 218 171 166 206 193 163 217 251 266 252 221 209 204 198 197 198 199 202 204 208 211 212 213 212
236 234 234 231 227 232 231 229 221 216 219 210 200 199 199 199 203 204 205 203 202 203 199 196 200 199 194 202 208 206 205 205 201 194 193 188 177 166 168 174 174 167 154 159 153 142 168 170 160 150 127 130 126 87 67 14 323 284 220 240 253 202 242 308 261 201 180 142 187 190 223 250 270 263 220 206 205 200 200 202 202 203 206 209 212 213 213 213
237 233 234 231 225 230 229 228 223 214 217 211 199 199 199 198 199 201 202 202 201 199 196 196 196 195 197 196 194 194 197 201 200 193 190 185 177 170 176 182 174 170 162 165 166 142 155 163 151 146 128 119 117 110 132 206 226 234 213 219 242 218 208 248 284 224 193 149 195 215 233 241 260 286 228 202 202 199 201 206 205 205 208 210 212 214 214 214
237 233 233 231 224 227 227 226 223 214 214 209 200 198 199 198 197 197 195 195 192 187 192 193 185 188 210 195 187 189 193 196 195 192 187 181 178 176 181 183 168 162 152 148 161 148 144 154 145 138 132 137 144 154 181 198 184 193 187 187 234 251 228 224 249 202 176 171 206 200 229 253 265 281 255 205 200 200 204 207 207 208 209 212 214 215 217 217
235 233 232 229 224 223 225 225 219 210 206 204 200 196 197 192 190 192 185 179 174 171 181 179 175 179 226 186 184 187 189 190 187 185 184 177 175 176 180 183 166 156 146 141 170 159 138 133 145 159 184 176 175 179 193 205 154 198 260 207 221 238 247 228 249 223 177 172 211 199 218 244 250 254 235 205 203 207 212 211 211 212 212 213 215 218 221 221
234 232 230 228 223 219 221 222 214 206 204 203 196 189 187 177 172 183 175 171 173 174 176 177 179 181 101 168 177 179 178 180 179 175 175 172 170 172 180 179 162 155 153 146 175 161 143 144 184 184 186 175 174 178 197 257 246 275 307 302 250 237 250 235 249 264 188 175 215 207 215 234 238 246 229 205 205 213 218 220 221 219 216 215 217 221 225 227
234 232 228 226 222 218 218 217 211 204 202 200 192 186 182 172 169 175 168 172 180 183 186 180 180 174 128 167 176 175 166 167 174 171 169 170 170 170 177 174 159 163 169 147 148 155 150 170 198 178 165 162 172 178 194 230 240 262 270 277 276 244 246 252 246 266 191 183 237 217 221 243 242 250 243 204 198 216 217 218 222 222 220 220 221 225 228 232
233 231 226 223 220 217 217 213 209 202 195 191 188 192 189 179 185 184 168 158 175 183 192 178 172 147 147 170 180 177 165 156 170 174 173 172 173 174 174 172 166 172 168 150 145 153 166 195 185 169 166 166 178 190 201 222 225 238 250 259 270 245 245 275 275 267 170 187 257 219 212 250 253 251 248 205 205 225 223 220 222 221 219 222 224 227 230 232
232 228 224 221 217 216 214 208 208 205 201 196 189 196 197 184 184 178 163 131 154 169 168 171 167 142 150 161 174 175 167 159 167 176 178 173 174 178 172 171 175 168 170 168 161 162 182 203 179 174 179 176 181 194 203 219 219 231 244 238 257 251 200 248 252 227 138 138 222 151 200 259 265 263 262 228 225 236 236 231 229 225 223 227 229 230 231 232
231 225 222 219 215 213 211 206 205 205 206 208 201 199 198 192 180 167 153 105 140 153 164 173 172 163 164 167 171 171 169 169 171 176 178 173 172 176 173 170 169 170 183 181 168 171 187 186 174 172 181 183 183 193 199 207 217 235 239 229 249 251 221 231 218 156 72 359 124 102 9 292 260 252 266 243 230 239 245 240 236 233 230 233 235 233 234 235
228 223 219 215 213 210 206 203 204 203 201 204 208 204 195 190 177 167 152 71 138 149 165 177 175 173 173 170 172 172 168 171 178 178 176 175 173 168 168 173 173 183 186 175 162 176 203 182 171 169 180 185 186 195 195 190 203 240 240 226 235 237 227 222 173 112 80 297 255 125 244 285 281 249 249 247 231 239 243 236 235 237 235 236 237 236 237 237
223 219 214 209 210 206 201 202 202 200 196 197 205 202 189 183 172 169 159 58 191 167 154 176 179 178 172 165 166 167 162 171 183 180 175 179 179 168 162 176 187 198 177 166 163 186 208 178 169 171 177 180 191 200 191 181 188 236 235 224 235 228 178 164 170 132 131 229 269 117 177 255 310 275 245 244 238 246 244 235 238 238 237 237 237 239 239 238
218 215 209 204 206 200 196 201 199 194 191 193 200 195 183 176 168 169 165 7 204 158 142 170 176 177 172 163 162 162 158 163 170 179 179 179 180 176 176 178 186 196 170 158 192 196 168 170 174 177 173 177 192 199 191 178 178 235 238 222 233 217 177 170 171 172 199 209 334 30 143 228 287 262 260 246 228 257 259 250 247 241 238 238 237 238 238 237
213 211 204 200 202 199 195 198 195 191 191 192 192 187 177 171 167 166 170 250 179 131 139 165 167 171 167 162 165 158 136 151 154 184 182 177 179 182 196 197 184 185 175 170 198 197 145 171 182 176 175 187 188 192 191 173 181 233 225 200 208 208 182 169 166 173 236 134 279 303 150 195 268 272 297 303 203 257 259 246 245 240 237 237 237 237 236 236
206 205 199 196 200 199 197 197 194 192 193 190 185 178 168 166 165 160 187 234 149 115 153 157 157 161 156 162 174 152 136 153 155 174 177 179 184 182 196 205 194 174 183 191 197 213 170 184 185 176 180 187 179 190 187 173 195 213 173 129 115 58 65 110 146 142 87 164 236 244 191 187 269 279 300 302 221 246 251 245 242 238 237 237 238 238 238 237
198 197 194 193 194 192 195 199 197 194 190 186 181 170 160 161 160 161 208 194 122 153 156 149 159 160 152 160 183 155 145 155 137 150 168 182 185 191 228 194 192 155 175 207 197 222 348 173 181 181 190 179 170 186 188 184 188 157 128 97 64 43 48 55 66 103 132 253 249 242 215 177 261 275 248 223 222 216 226 251 253 243 239 238 238 240 240 240
193 191 190 190 188 187 191 192 192 190 182 178 173 163 158 159 161 188 195 157 111 166 153 141 158 161 157 162 172 160 151 136 134 147 162 177 181 200 213 181 183 142 153 191 202 284 19 120 174 195 199 165 149 169 193 194 182 148 128 126 107 26 23 25 2 60 193 244 258 248 209 169 227 262 245 239 254 229 213 235 247 246 245 243 243 244 244 244
189 188 187 188 186 186 188 180 180 181 175 170 164 156 157 170 205 188 172 159 157 179 164 149 158 163 164 165 163 161 151 140 152 156 164 173 178 194 195 187 179 169 185 188 182 3 78 196 260 182 202 174 154 164 175 176 181 169 145 144 158 211 143 200 242 225 220 242 256 224 175 198 230 251 257 264 274 255 229 227 240 254 261 262 260 256 252 248
186 184 184 186 184 184 184 172 169 170 166 165 161 154 162 201 198 153 124 171 179 167 167 158 160 165 165 163 157 154 148 152 165 164 170 176 176 190 205 218 195 182 187 169 150 151 195 294 293 163 221 198 173 173 175 167 180 178 161 162 178 165 160 203 228 249 246 252 259 219 208 256 265 262 249 246 254 254 248 243 250 260 269 280 286 276 265 254
182 181 180 182 182 182 181 168 163 161 159 160 158 155 178 189 180 123 140 174 164 153 164 157 153 159 165 162 155 153 144 157 169 162 165 170 173 192 208 223 211 184 113 149 166 176 187 234 212 174 183 182 182 193 177 156 163 187 166 152 173 167 166 199 204 199 227 253 268 257 213 199 193 242 240 237 255 265 269 266 260 263 266 272 277 272 267 261
179 178 177 178 179 182 181 169 162 160 158 157 156 169 182 172 132 147 154 153 145 149 154 151 148 153 166 162 155 161 139 152 167 159 164 177 183 191 195 208 205 174 142 170 185 180 184 211 260 263 2 164 179 204 158 144 164 201 147 143 191 186 155 165 197 184 178 207 250 222 225 212 206 274 273 254 264 272 271 264 260 261 260 259 260 257 254 255
175 175 175 175 176 181 182 170 165 166 163 157 161 182 174 153 144 164 162 152 157 153 144 149 155 156 165 161 160 169 119 140 161 159 175 187 193 197 199 204 197 182 176 170 151 171 173 192 332 356 7 172 175 179 160 164 176 162 144 188 212 163 130 136 209 138 111 202 245 192 241 288 300 290 292 290 278 278 274 267 261 259 252 245 247 247 245 247
170 170 172 174 175 179 180 172 168 171 169 164 177 177 164 158 157 157 159 155 155 152 146 152 170 167 161 154 168 170 139 136 160 166 175 185 202 202 201 206 194 193 193 166 152 205 150 122 328 85 156 270 260 129 79 74 148 147 180 196 173 113 110 124 171 16 127 225 268 202 222 267 251 258 303 317 283 271 269 259 254 255 245 235 240 244 245 249
167 168 171 177 178 176 176 173 171 170 170 172 176 172 174 167 158 151 149 148 148 152 154 154 165 175 167 161 171 173 159 155 170 176 173 183 216 199 191 201 193 190 193 170 162 206 139 126 310 341 177 260 357 114 142 355 57 164 188 182 145 170 208 157 171 198 188 220 270 300 253 243 198 213 284 281 245 250 262 259 249 249 238 231 237 243 246 250
165 167 171 178 177 175 173 172 170 167 168 180 178 178 178 153 154 154 148 146 149 156 162 162 163 174 180 171 168 172 172 169 171 176 177 186 217 196 186 192 185 182 189 176 164 186 139 127 224 271 223 263 10 159 185 195 9 42 103 181 163 173 187 181 171 173 179 207 239 288 290 256 221 215 230 244 238 229 242 254 249 244 240 234 235 241 247 251
165 164 172 175 173 171 169 167 166 167 170 182 179 173 166 157 160 163 156 153 156 165 168 168 165 169 179 177 168 171 178 174 173 181 189 184 199 208 190 187 170 170 178 165 150 165 139 121 171 246 357 175 198 211 187 170 160 155 160 185 206 162 131 169 183 145 145 178 192 235 264 256 239 211 206 231 246 236 229 235 243 252 253 245 239 242 247 250
166 163 173 174 171 166 164 161 160 167 173 186 187 170 165 161 155 163 162 158 157 168 167 165 169 170 170 173 171 173 173 167 179 187 195 181 182 222 197 183 163 159 162 153 159 169 157 134 146 149 167 193 229 246 191 177 179 180 183 191 192 166 127 178 216 196 117 184 181 185 249 255 239 203 202 216 236 246 240 220 230 256 259 247 237 236 242 247
165 168 168 173 172 164 159 155 157 171 181 184 175 160 157 144 148 162 164 160 158 154 154 162 169 166 168 174 169 170 171 166 184 188 186 185 182 185 186 170 156 156 156 151 172 153 109 103 114 149 200 206 244 249 163 171 177 178 211 202 184 179 155 173 210 209 170 222 162 152 256 256 210 190 200 208 217 235 244 222 226 250 246 223 226 226 238 255
157 148 161 168 169 164 158 148 170 174 196 167 154 160 162 151 159 163 161 163 163 139 144 160 164 161 168 171 156 162 170 169 187 188 148 165 190 185 166 156 150 155 153 142 167 151 112 101 100 61 303 298 304 325 103 118 81 222 235 175 156 195 154 148 193 183 188 215 157 175 261 244 184 187 198 211 222 237 251 233 225 234 222 213 232 232 241 257
147 140 156 163 165 164 161 169 173 167 167 160 155 164 162 147 164 165 163 169 167 149 151 159 166 166 166 164 161 168 173 171 192 194 147 147 192 178 161 158 157 165 176 181 177 169 157 123 119 117 75 11 329 310 258 217 176 206 225 155 169 160 107 115 159 126 212 215 167 196 242 229 208 203 183 203 233 257 261 232 218 220 213 224 242 237 243 252
149 143 157 163 165 166 163 164 169 161 159 164 164 166 155 150 175 173 166 165 161 153 152 154 165 163 154 159 166 172 174 170 170 178 152 143 171 177 167 167 168 175 186 181 163 155 156 156 144 139 154 185 198 212 216 182 153 198 184 173 188 171 158 166 123 154 228 208 167 211 236 252 351 13 144 180 208 251 248 221 213 221 223 233 239 244 261 263
154 143 156 163 168 169 161 147 163 161 161 162 162 171 161 153 178 176 166 163 156 147 137 135 149 145 147 158 159 170 178 179 154 164 165 159 163 224 181 176 177 181 181 167 155 148 126 169 179 180 190 196 193 193 152 127 151 200 188 174 188 189 178 142 123 205 208 149 201 226 215 131 319 222 190 202 197 212 230 216 217 226 232 239 245 260 275 266
156 159 155 151 164 168 146 128 160 162 167 165 161 172 167 156 162 175 174 177 156 142 123 123 148 147 159 160 155 171 177 170 143 162 164 163 147 82 174 180 183 179 170 160 158 150 99 194 197 195 202 200 170 171 154 147 175 191 177 178 190 183 166 165 209 216 154 148 234 223 143 161 228 222 207 208 202 212 232 228 228 236 251 267 273 275 275 266
157 160 161 155 154 169 170 166 167 163 168 171 158 150 163 161 162 173 185 180 155 148 132 142 163 162 164 163 159 167 169 159 155 162 157 154 134 108 139 172 191 173 163 162 166 155 135 196 194 172 196 228 130 156 165 165 183 181 175 188 190 179 181 200 221 215 164 203 235 164 149 192 213 217 218 212 204 206 222 235 242 257 264 264 268 270 269 264
142 145 159 159 146 157 165 166 165 162 167 172 161 153 165 168 169 172 165 145 159 160 149 156 171 168 165 166 158 156 168 170 167 172 166 156 154 143 139 139 192 166 156 158 173 173 163 191 167 132 173 274 109 159 174 168 166 169 186 195 188 188 199 209 220 214 199 227 239 186 203 223 202 204 224 223 215 200 204 243 248 247 243 248 263 270 269 263
147 153 160 155 118 101 118 144 157 158 166 173 174 174 171 171 171 170 162 158 163 171 164 162 169 170 166 166 161 168 182 177 165 166 155 142 153 157 155 167 164 142 139 148 171 219 160 187 153 115 139 278 125 142 160 154 154 170 193 201 196 201 209 215 221 212 210 239 246 249 268 261 211 195 215 226 227 188 200 242 237 237 241 249 260 264 265 262
144 158 160 149 118 119 128 139 154 156 170 182 184 181 175 176 171 159 142 165 160 166 171 164 161 161 162 167 171 178 179 168 159 161 158 157 168 174 170 169 148 136 138 151 159 122 115 163 64 102 147 244 192 124 105 84 97 165 213 212 205 207 212 218 219 201 211 232 235 242 262 255 194 178 197 215 213 189 218 233 235 240 243 246 250 252 254 256
131 140 148 140 101 127 144 146 157 167 181 184 182 177 174 178 171 153 131 68 144 148 146 144 146 148 158 175 182 180 173 167 164 165 164 164 167 164 158 159 157 154 160 162 158 149 140 147 132 133 171 240 171 132 122 90 90 243 237 212 203 207 211 217 223 216 218 222 213 226 239 211 145 164 168 183 194 195 219 230 234 242 244 244 249 249 251 254